Wind_Speed
24 27 26 26 23 21 20 21 26 29 31 34 31 33 31 32 28 26 21 21 25 23 18 16 10 15 17 20 24 27 24 26 33 38 37 33 30 23 23 22 24 27 27
29 31 32 30 25 23 21 19 20 25 29 30 31 30 32 29 28 25 24 28 30 24 17 12 14 18 22 25 29 27 27 25 28 36 37 32 27 27 23 27 27 26 30
36 36 36 34 30 27 23 19 19 21 26 28 28 30 27 28 30 26 26 32 32 22 15 13 14 16 22 32 27 28 28 25 23 27 30 27 25 19 24 21 25 27 27
43 43 42 39 35 30 25 23 22 22 24 28 28 28 27 31 30 29 33 34 26 19 15 12 15 22 33 30 26 24 21 20 20 23 25 22 21 25 23 24 26 25 31
48 49 49 43 38 33 30 28 26 27 27 29 30 29 31 31 32 35 35 30 21 18 14 12 17 26 31 25 24 22 20 19 20 21 20 23 20 22 27 25 25 27 27
42 48 51 47 39 35 33 32 30 31 34 35 34 33 32 34 36 38 35 28 19 16 15 17 21 29 29 23 22 23 24 20 22 23 24 22 23 23 27 23 24 23 21
25 27 35 44 42 38 37 35 36 38 38 37 37 35 34 36 39 38 32 21 14 13 16 20 24 27 22 21 22 23 22 21 21 22 23 23 24 22 21 22 19 17 15
21 25 29 32 34 34 34 36 39 41 41 40 38 36 37 40 38 29 20 18 15 13 18 19 25 22 20 20 20 21 18 18 20 24 23 25 22 20 21 21 18 16 12
11 10 13 16 20 26 32 34 36 38 40 41 41 42 43 39 30 18 14 9 12 17 16 22 22 21 20 21 19 17 19 19 20 23 20 20 20 21 20 17 16 14 13
21 21 20 20 20 22 26 31 35 37 40 42 44 43 36 31 17 9 7 10 13 14 19 23 21 22 24 21 20 17 18 17 18 17 17 18 18 19 18 17 16 15 15
21 20 20 18 17 18 19 21 28 35 36 38 40 30 21 13 7 8 9 14 11 17 20 19 19 22 20 19 21 22 19 17 16 17 18 19 19 18 18 18 17 16 17
22 22 25 26 26 30 31 32 26 29 34 34 32 24 16 13 10 11 15 11 11 19 18 17 20 20 17 15 15 17 19 17 15 16 18 18 16 18 16 11 12 14 14
27 23 24 24 24 25 26 26 27 31 33 32 24 16 13 7 11 13 13 13 17 19 19 18 17 16 14 14 17 15 18 17 18 16 17 15 13 16 9 9 12 11 11
22 23 22 21 21 22 22 22 23 19 22 16 11 11 9 16 13 10 14 15 19 19 18 17 16 16 15 16 13 15 17 18 15 14 15 13 13 11 8 12 11 11 11
20 19 20 19 18 16 10 10 13 11 9 10 6 15 20 13 9 11 17 16 19 17 17 15 15 14 13 15 14 15 14 16 16 14 13 13 12 9 12 13 11 12 12
17 13 11 9 7 8 10 5 1 2 8 19 16 11 10 12 11 15 16 15 17 17 16 14 11 10 12 12 11 13 14 17 16 14 12 13 12 12 15 15 13 13 13
15 7 4 6 7 7 8 10 13 14 16 11 11 11 14 15 14 17 17 17 16 15 13 9 9 10 11 11 10 11 13 16 15 14 13 13 13 14 17 17 17 16 15
10 8 7 7 8 10 12 13 13 13 13 13 13 15 14 14 15 15 18 16 14 12 12 9 9 10 10 10 10 11 11 14 14 15 14 14 15 16 20 19 19 18 18
12 11 11 13 13 12 12 12 11 10 11 13 13 11 12 12 13 15 16 15 13 11 10 6 8 10 10 10 11 11 9 12 12 15 14 14 16 17 21 21 19 18 19
9 9 10 10 11 12 11 11 11 11 11 11 11 12 12 13 14 14 17 15 12 11 8 5 6 8 8 9 10 12 11 11 12 13 14 14 15 18 20 23 22 22 20
10 10 11 11 12 12 12 10 10 11 12 12 10 10 11 12 12 12 13 13 10 9 8 7 8 7 9 9 10 11 12 13 14 15 14 15 16 18 21 21 23 23 21
11 11 11 10 11 11 9 10 11 13 14 12 11 10 11 12 10 10 8 9 7 7 7 8 8 7 9 10 10 10 11 11 11 14 16 14 15 16 19 22 23 24 24
15 15 14 13 13 13 13 14 16 15 16 16 15 13 12 10 8 5 6 6 6 7 9 9 8 8 10 10 11 11 10 12 12 12 16 16 16 16 17 20 23 24 25
19 19 18 18 17 17 16 17 18 18 18 20 15 12 11 8 7 7 7 7 6 8 11 12 10 9 11 11 11 11 10 10 12 12 14 15 15 15 16 18 21 23 25
25 25 25 25 22 21 21 20 19 20 21 21 17 13 10 8 7 5 7 9 11 12 11 12 8 10 10 10 11 11 9 10 11 12 14 16 16 16 16 16 18 20 23
19 18 18 18 19 19 18 16 18 21 22 18 14 11 11 10 11 8 8 9 6 6 8 10 11 11 12 12 11 11 10 10 10 11 11 13 14 15 16 15 15 17 19
Wind_Direction
250 249 236 236 251 255 266 277 273 269 263 263 267 274 268 266 260 233 228 212 203 205 212 226 252 299 303 310 298 293 285 282 279 286 292 296 298 297 302 282 283 287 283
258 255 251 247 252 253 262 278 285 276 268 265 261 263 265 259 236 233 227 206 211 212 225 247 291 307 312 296 294 295 289 285 277 283 288 291 291 289 286 280 282 287 294
259 258 255 251 253 254 260 271 279 277 266 259 256 257 250 240 240 238 221 211 213 222 237 270 298 308 295 289 297 292 289 285 279 275 281 286 287 282 288 277 282 287 292
261 260 257 254 256 256 258 261 268 272 264 257 257 251 245 236 241 223 209 214 218 232 245 278 294 302 307 289 292 290 284 278 275 276 276 279 276 283 284 293 295 301 302
267 266 260 258 255 256 255 259 264 268 264 258 257 248 241 240 230 213 213 217 230 242 257 276 286 305 282 286 284 281 276 269 280 274 270 269 278 283 285 296 299 306 308
270 270 265 259 256 256 259 261 262 269 263 253 248 242 240 232 220 215 219 225 237 249 260 273 288 293 281 278 277 277 278 266 265 262 257 274 276 284 287 297 304 303 306
287 284 269 262 255 256 257 258 260 262 263 253 243 238 234 219 209 213 218 227 234 253 263 278 287 275 275 275 274 276 270 257 259 260 258 270 277 282 293 296 294 289 288
291 283 277 272 265 264 264 266 265 265 260 252 239 232 221 211 209 212 217 223 239 266 280 279 275 277 278 273 266 272 268 255 243 252 266 272 271 290 293 287 284 280 271
328 304 284 274 270 274 278 276 271 266 257 245 234 225 212 206 206 205 213 240 266 277 284 284 281 276 275 273 269 267 258 259 264 264 261 265 276 284 280 276 275 264 255
312 307 300 296 297 293 286 281 275 272 256 239 228 217 203 195 201 207 235 274 289 290 292 281 275 272 269 264 259 259 255 261 259 264 259 267 284 291 273 269 263 254 240
306 302 296 292 295 298 295 290 288 274 250 234 223 192 187 182 185 199 257 287 293 300 288 274 270 268 267 253 246 251 258 256 255 256 264 276 278 277 271 263 253 241 234
309 308 310 307 304 295 283 272 262 256 244 233 203 195 200 194 216 271 287 287 291 290 283 273 263 261 259 255 250 245 248 250 251 258 263 269 273 274 280 250 226 221 215
318 316 314 308 305 300 290 273 258 247 235 199 179 179 199 240 280 303 312 298 295 294 288 275 266 260 246 255 264 249 244 239 245 248 268 263 271 281 262 210 202 204 194
320 322 316 311 313 305 291 271 254 212 177 189 227 191 228 283 284 290 282 286 290 295 285 276 263 254 241 258 265 244 237 244 234 250 262 257 262 273 208 194 196 192 192
325 321 316 313 307 294 240 187 172 150 168 177 239 279 295 286 285 288 264 277 292 284 278 274 262 260 246 259 253 245 238 235 226 234 246 247 254 241 200 190 194 194 198
313 304 294 270 203 172 170 179 251 295 300 308 301 299 301 301 294 268 257 285 283 271 279 278 265 242 259 255 253 250 244 233 227 229 234 240 241 221 196 196 196 191 188
302 265 221 231 272 318 323 318 310 294 299 293 293 283 290 291 280 265 266 266 263 265 279 275 256 252 259 258 255 251 240 234 230 225 228 231 232 212 200 200 196 192 189
334 326 323 332 330 327 323 322 319 314 311 303 293 288 284 282 276 262 262 257 248 256 262 267 250 253 258 269 266 252 235 223 225 219 223 225 229 215 205 206 201 195 195
330 328 324 322 326 330 331 328 325 323 313 311 306 295 293 289 279 268 259 251 249 252 263 270 239 250 262 263 258 253 234 224 215 216 221 223 225 223 209 211 207 204 200
353 348 342 334 331 330 330 332 333 329 327 323 311 304 299 290 280 280 251 248 254 254 261 262 245 252 262 259 256 251 243 228 217 215 220 226 226 224 218 214 211 209 207
355 350 354 354 351 345 346 337 322 323 324 319 317 304 305 298 294 281 273 259 267 264 261 261 252 255 261 259 256 249 244 239 232 222 221 225 227 223 222 221 220 217 214
339 343 348 345 342 345 339 331 331 324 320 315 314 309 310 314 302 282 268 245 260 253 256 264 256 250 261 260 256 254 244 240 234 225 218 220 224 226 222 219 224 224 220
318 314 316 314 312 310 313 331 335 324 315 308 305 305 310 307 298 285 244 230 244 257 259 262 263 269 266 264 259 257 251 240 238 232 223 219 221 224 226 220 220 224 224
302 300 299 298 298 293 292 308 315 316 315 320 303 296 296 294 276 252 256 242 251 270 263 273 265 267 267 261 261 258 254 236 231 232 226 223 221 219 224 225 222 221 223
297 290 286 286 285 287 288 294 300 302 306 305 302 272 274 275 239 262 280 281 278 275 262 263 268 270 264 254 251 243 249 237 231 231 229 225 224 225 224 222 223 220 220
326 318 309 301 289 284 290 295 297 301 303 300 298 288 260 260 239 242 279 292 278 249 252 259 270 262 258 254 247 237 234 234 232 223 222 221 219 217 214 215 216 216 216
Height
1440 1441 1441 1442 1443 1443 1443 1443 1442 1442 1443 1444 1444 1446 1447 1447 1449 1449 1453 1451 1459 1463 1463 1467 1469 1470 1470 1467 1468 1468 1467 1468 1462 1460 1459 1460 1459 1460 1460 1458 1457 1457 1454
1432 1433 1433 1435 1435 1435 1435 1435 1436 1436 1436 1438 1440 1440 1442 1442 1442 1444 1444 1449 1455 1456 1457 1461 1462 1461 1460 1460 1460 1460 1461 1462 1460 1457 1455 1455 1454 1454 1453 1453 1452 1447 1447
1425 1425 1425 1426 1427 1428 1429 1430 1430 1430 1430 1431 1433 1435 1435 1437 1438 1439 1442 1446 1447 1449 1451 1452 1452 1454 1454 1453 1453 1454 1455 1455 1454 1453 1449 1450 1448 1448 1450 1447 1446 1442 1441
1420 1419 1418 1420 1420 1422 1423 1423 1423 1423 1424 1425 1426 1428 1429 1430 1433 1436 1438 1440 1443 1444 1445 1445 1446 1446 1444 1447 1447 1448 1448 1447 1446 1446 1447 1448 1446 1446 1443 1441 1438 1435 1432
1413 1411 1411 1413 1414 1416 1416 1416 1416 1416 1416 1418 1419 1420 1421 1423 1425 1430 1434 1436 1438 1439 1438 1437 1439 1437 1438 1438 1439 1442 1441 1441 1441 1443 1442 1444 1443 1442 1440 1437 1434 1430 1427
1403 1401 1402 1404 1407 1408 1409 1408 1409 1409 1408 1409 1409 1412 1413 1414 1416 1421 1426 1428 1431 1431 1431 1432 1431 1431 1432 1431 1431 1433 1434 1435 1436 1437 1435 1437 1438 1437 1436 1432 1431 1427 1424
1396 1394 1394 1396 1399 1401 1402 1402 1402 1401 1401 1401 1403 1404 1406 1409 1412 1415 1417 1421 1421 1425 1425 1426 1425 1424 1424 1426 1425 1426 1426 1427 1432 1434 1432 1432 1433 1432 1430 1428 1427 1425 1423
1392 1392 1393 1395 1397 1398 1400 1399 1398 1398 1397 1396 1397 1398 1401 1404 1404 1408 1411 1413 1415 1417 1419 1418 1418 1419 1418 1419 1419 1422 1423 1422 1424 1428 1427 1428 1426 1425 1426 1424 1424 1422 1421
1393 1392 1391 1391 1392 1393 1394 1393 1392 1391 1390 1391 1392 1391 1394 1396 1397 1400 1403 1406 1408 1411 1413 1414 1412 1413 1414 1415 1414 1414 1419 1418 1421 1424 1421 1423 1421 1421 1420 1420 1420 1420 1420
1392 1391 1389 1388 1387 1386 1385 1386 1387 1386 1386 1386 1387 1386 1386 1386 1391 1393 1396 1400 1401 1405 1408 1408 1407 1408 1409 1408 1407 1408 1411 1413 1412 1415 1415 1417 1416 1415 1415 1416 1416 1417 1418
1390 1388 1387 1384 1381 1380 1379 1378 1379 1383 1383 1381 1382 1385 1379 1385 1391 1390 1391 1392 1394 1398 1400 1401 1401 1402 1401 1403 1400 1406 1408 1410 1408 1411 1411 1413 1412 1410 1410 1411 1412 1413 1415
1387 1385 1383 1381 1379 1376 1374 1372 1368 1369 1373 1377 1377 1382 1382 1383 1385 1387 1385 1386 1388 1391 1391 1394 1395 1394 1396 1397 1395 1398 1400 1401 1405 1407 1407 1406 1407 1406 1405 1406 1408 1410 1412
1383 1380 1378 1376 1374 1373 1372 1370 1368 1367 1367 1368 1373 1376 1378 1382 1383 1382 1385 1386 1386 1387 1387 1387 1390 1391 1391 1393 1392 1393 1395 1396 1399 1401 1404 1403 1403 1402 1401 1404 1406 1408 1411
1381 1378 1375 1374 1372 1371 1369 1367 1366 1366 1367 1370 1371 1372 1374 1376 1377 1379 1381 1382 1383 1385 1384 1384 1384 1386 1387 1389 1388 1389 1389 1392 1396 1399 1399 1401 1400 1399 1400 1403 1405 1408 1410
1379 1377 1374 1373 1372 1371 1371 1372 1370 1370 1370 1371 1373 1374 1372 1372 1374 1377 1378 1379 1381 1381 1379 1379 1379 1382 1384 1384 1383 1386 1385 1388 1391 1393 1395 1398 1398 1398 1400 1403 1406 1408 1410
1380 1378 1376 1374 1372 1371 1368 1368 1370 1371 1371 1371 1372 1372 1373 1373 1373 1374 1374 1375 1376 1377 1376 1376 1375 1379 1381 1380 1379 1381 1383 1386 1388 1389 1391 1394 1395 1397 1400 1403 1406 1408 1411
1380 1377 1375 1374 1372 1371 1371 1370 1369 1369 1369 1370 1370 1370 1370 1370 1369 1370 1370 1370 1371 1373 1372 1372 1375 1377 1377 1378 1375 1376 1378 1384 1386 1386 1388 1391 1394 1396 1400 1402 1405 1408 1411
1382 1380 1378 1376 1375 1374 1373 1372 1371 1370 1368 1369 1368 1368 1366 1366 1365 1365 1366 1366 1367 1368 1369 1369 1371 1374 1374 1375 1374 1374 1376 1379 1381 1383 1385 1389 1392 1395 1398 1402 1404 1407 1410
1382 1380 1378 1377 1375 1374 1373 1372 1370 1368 1367 1366 1364 1364 1363 1362 1362 1362 1362 1363 1364 1365 1366 1366 1368 1370 1371 1372 1373 1374 1374 1376 1377 1379 1382 1386 1389 1393 1396 1400 1403 1407 1410
1382 1380 1378 1377 1374 1372 1371 1371 1369 1366 1366 1363 1362 1362 1360 1360 1359 1359 1359 1360 1361 1362 1364 1364 1366 1367 1368 1370 1371 1372 1373 1374 1374 1377 1380 1384 1387 1390 1393 1397 1401 1405 1409
1382 1381 1378 1376 1376 1374 1371 1369 1368 1367 1365 1363 1362 1360 1359 1358 1357 1356 1356 1358 1359 1360 1361 1363 1365 1365 1367 1368 1369 1369 1370 1370 1372 1374 1377 1381 1384 1387 1391 1394 1398 1403 1407
1384 1381 1380 1377 1376 1373 1371 1369 1368 1365 1364 1362 1360 1359 1357 1356 1354 1354 1355 1356 1358 1359 1360 1362 1363 1363 1365 1366 1366 1367 1367 1368 1369 1371 1374 1378 1381 1385 1388 1391 1395 1399 1404
1383 1380 1379 1376 1374 1372 1370 1368 1366 1364 1362 1361 1358 1356 1355 1354 1353 1353 1354 1355 1356 1358 1359 1360 1361 1362 1362 1363 1364 1364 1364 1365 1367 1369 1371 1375 1378 1381 1384 1387 1391 1395 1399
1381 1378 1375 1373 1371 1369 1368 1366 1364 1363 1360 1358 1355 1354 1353 1353 1352 1353 1353 1354 1355 1356 1357 1358 1359 1359 1360 1360 1361 1361 1362 1363 1364 1366 1369 1372 1375 1378 1381 1384 1387 1391 1395
1374 1371 1369 1368 1367 1365 1364 1363 1362 1360 1357 1354 1352 1351 1351 1351 1351 1352 1352 1353 1353 1354 1355 1356 1356 1357 1357 1358 1358 1359 1360 1361 1362 1364 1366 1369 1372 1375 1378 1380 1383 1387 1391
1368 1365 1363 1362 1361 1361 1360 1359 1358 1355 1352 1349 1348 1347 1348 1348 1349 1350 1350 1351 1351 1352 1352 1353 1354 1354 1354 1355 1355 1357 1358 1359 1360 1362 1364 1367 1369 1372 1375 1377 1380 1383 1387